Location: Bailleul
(50.3375°N, 2.8513°E)
Time: 00:56:48
(UTC+00:00)

Cosmos 1867 - Pass Details

Date: 30 October 2021
Orbit: 773 x 803 km, 65.0° (Epoch: 30 November)

Event Time Altitude Azimuth Distance (km) Brightness Sun altitude
Exits shadow 06:00:03 - 248° (WSW) 3,234 6.2 -6.3°
Reaches altitude 10° 06:02:28 10° 255° (WSW) 2,370 5.5 -5.9°
Maximum altitude 06:07:33 39° 324° (NW) 1,199 4.2 -5.1°
Drops below altitude 10° 06:12:41 10° 33° (NNE) 2,390 6.3 -4.3°
Sets 06:15:18 0° 41° (NE) 3,324 7.1 -3.9°
